[[{"header":{"parameterUnit":"m.s-1","parameterCategory":1,"la1":30.2991,"la2":30.254,"lo1":-89.0895,"lo2":-89.0444,"dy":0.0017,"dx":0.0017,"nx":28,"ny":28,"refTime":"2024-08-31T03:00:00:Z","depth":0,"parameterNumber":2,"parameterNumberName":"U-component_of_WINDS"},"data":[0,0,0,0,0,0,0,0,0,0,0,0,0,0,0,0,0,0,0,0,0,0,0,0,0,0,0,0,0,0,0,0,0,0,0,0,0,0,0,0,0,0,0,0,0,0,0,0,0,0,0,0,0,0,0,0,0,0,-2.9953,-2.9953,0,-2.9899,-2.9899,-2.9898,-2.9733,-2.9729,-2.9725,-2.9722,-2.9673,-2.9675,-2.9677,0,0,0,0,0,0,0,0,0,0,0,0,0,-2.992,-2.9921,-2.9953,-2.9953,-2.9952,-2.9899,-2.9899,-2.9898,-2.9733,-2.9729,-2.9725,-2.972,-2.9672,-2.9675,-2.9677,0,0,0,0,0,0,0,0,0,0,0,0,0,-2.9907,-2.9922,-2.9953,-2.9863,-2.9855,-2.9899,-2.9899,-2.9898,-2.9734,-2.9729,-2.9723,-2.9718,-2.9671,-2.9674,-2.9677,-2.9807,0,0,-2.9687,-2.9688,0,0,0,0,0,0,0,0,-2.9908,-2.9909,-2.9877,-2.987,-2.986,-2.9817,-2.9868,-2.9867,-2.9736,-2.978,-2.9722,-2.9716,-2.9726,-2.9724,-2.9726,-2.9804,-2.9802,-2.9687,-2.9689,-2.9691,-2.9691,0,0,0,0,0,0,0,-2.9909,-2.991,-2.9932,-2.9877,-2.9867,-2.9828,-2.982,-2.9868,-2.9785,-2.9776,-2.9764,-2.9759,-2.972,-2.9723,-2.9724,-2.9802,-2.9687,-2.969,-2.9692,-2.9693,-2.9983,-2.9989,0,0,0,0,0,0,-2.9922,-2.9912,-2.9934,-2.993,-2.9871,-2.9833,-2.9824,-2.9837,-2.9784,-2.977,-2.9764,-2.9752,-2.9721,-2.972,-2.9721,-2.9869,-2.9691,-2.9694,-2.9695,-2.9978,-2.9985,-2.9991,0,0,0,0,0,0,-2.9922,-2.9926,-2.9936,-2.9918,-2.9916,-2.9839,-2.9855,-2.9838,-2.9841,-2.9774,-2.9759,-2.9783,-2.9716,-2.9717,-2.9786,-2.9865,-2.9695,-2.9698,-2.9971,-2.998,-2.9988,-3.0165,0,0,0,0,0,0,-2.9922,-2.9927,-2.9974,-2.992,-2.9918,-3.0001,-2.9859,-2.9841,-2.9847,-2.983,-2.9788,-2.9776,-2.9712,-2.9782,-2.9789,-2.9866,-2.97,-2.9963,-2.9975,-2.9985,-3.0152,-3.0179,-3.0202,0,0,0,0,0,-2.9921,-3.0027,-2.9977,-2.998,-2.9975,-3.0005,-3.0004,-2.9927,-2.9854,-2.9901,-2.9858,-2.9777,-2.9855,-2.9791,-2.9797,-2.9876,-2.9958,-2.9972,-2.9984,-3.0141,-3.0174,-3.0201,0,0,0,0,0,0,-3.0094,-3.0018,-2.9962,-3.0053,-3.0037,-2.9977,-3.0035,-2.9965,-2.997,-2.9955,-2.9861,-2.9853,-2.9936,-2.9913,-2.9843,-2.9998,-2.9893,-2.9908,-3.001,-3.0041,-3.0065,-3.0069,-2.9703,0,0,0,0,0,-3.0143,-3.0172,-3.0105,-3.0192,-3.0187,-3.0113,-3.0123,-3.0065,-3.0045,-3.0038,-3.0,-2.9986,-3.0006,-3.0022,-3.0038,-3.0148,-3.0137,-3.0206,-3.0231,-3.0251,-3.0266,-3.0322,-3.0352,-3.0034,-3.0034,-3.0034,0,0,-3.0244,-3.0206,-3.0231,-3.0226,-3.0206,-3.0241,-3.0108,-3.015,-3.0175,-3.0045,-3.0107,-3.008,-3.0057,-3.0147,-3.0185,-3.0131,-3.0351,-3.0268,-3.0285,-3.0288,-3.0339,-3.0369,-3.0396,-3.0043,-3.0041,-3.004,0,0,-3.0445,-3.0419,-3.0488,-3.0471,-3.0442,-3.0392,-3.041,-3.0361,-3.0337,-3.0397,-3.03,-3.033,-3.0368,-3.0356,-3.0355,-3.0552,-3.0478,-3.056,-3.0691,-3.0747,-3.0772,-3.0794,-3.0864,-3.089,-3.0575,-3.0575,-3.0575,0,-3.0575,-3.062,-3.0534,-3.0581,-3.0583,-3.0465,-3.0535,-3.0524,-3.0503,-3.0507,-3.0446,-3.0491,-3.0468,-3.0554,-3.0602,-3.0605,-3.0622,-3.0564,-3.0775,-3.0796,-3.0815,-3.0881,-3.0908,-3.0585,-3.0584,-3.0583,-3.0582,0,-3.0781,-3.0814,-3.0874,-3.0854,-3.0862,-3.0922,-3.0846,-3.0865,-3.0807,-3.0765,-3.0829,-3.0796,-3.0803,-3.0819,-3.0764,-3.0898,-3.0865,-3.0791,-3.0683,-3.0857,-3.0917,-3.0942,-3.06,-3.0596,-3.0593,-3.0591,0,0,-3.1089,-3.102,-3.1044,-3.1033,-3.0993,-3.1018,-3.1073,-3.1077,-3.1096,-3.1086,-3.113,-3.1165,-3.1096,-3.1095,-3.1038,-3.1087,-3.1245,-3.1007,-3.1005,-3.1052,-3.1391,-3.1446,-3.1477,-3.1196,-3.1201,-3.1204,-3.1393,0,-3.1279,-3.1365,-3.129,-3.1392,-3.1422,-3.1311,-3.1358,-3.134,-3.1302,-3.1324,-3.1282,-3.1308,-3.1216,-3.1214,-3.1258,-3.1217,-3.1312,-3.1202,-3.1237,-3.124,-3.1246,-3.1508,-3.1567,-3.1746,-3.1416,-3.142,-3.1423,0,-3.1511,-3.151,-3.1614,-3.1567,-3.1577,-3.1621,-3.1619,-3.164,-3.1618,-3.1587,-3.1586,-3.1515,-3.1567,-3.1462,-3.1533,-3.146,-3.147,-3.1452,-3.1457,-3.1457,-3.1341,-3.1515,-3.1802,-3.1829,-3.1459,-3.1456,-3.1454,0,-3.1725,-3.1749,-3.1814,-3.1809,-3.1756,-3.1789,-3.1769,-3.1741,-3.1749,-3.1748,-3.1753,-3.176,-3.1764,-3.1771,-3.1704,-3.1634,-3.1784,-3.1674,-3.1761,-3.1763,-3.1797,-3.1796,-3.2089,-3.1805,-3.1805,-3.1804,-3.1804,0,-3.1944,-3.2013,-3.1909,-3.195,-3.2023,-3.1937,-3.2013,-3.1981,-3.1958,-3.1991,-3.1897,-3.1931,-3.184,-3.1866,-3.1814,-3.1881,-3.1884,-3.1861,-3.1846,-3.1869,-3.1872,-3.1874,-3.1859,-3.1811,-3.181,-3.1808,-3.1807,0,-3.2195,-3.2128,-3.2192,-3.2136,-3.2124,-3.2181,-3.2133,-3.2169,-3.2125,-3.2169,-3.2174,-3.2105,-3.213,-3.2064,-3.208,-3.2045,-3.2141,-3.2107,-3.2148,-3.2137,-3.2228,-3.222,-3.2532,-3.2569,-3.2263,-3.2266,-3.2269,0,-3.2339,-3.2388,-3.2337,-3.2352,-3.2336,-3.2361,-3.2368,-3.2285,-3.2297,-3.2275,-3.2315,-3.2331,-3.2339,-3.2385,-3.2337,-3.2349,-3.2314,-3.2422,-3.2315,-3.2336,-3.2315,-3.2312,-3.2317,-3.2445,-3.2448,-3.2451,-3.2454,0,-3.2601,-3.2566,-3.2578,-3.258,-3.259,-3.2588,-3.2579,-3.2597,-3.2509,-3.2527,-3.255,-3.2557,-3.2571,-3.2589,-3.2591,-3.2571,-3.2499,-3.2488,-3.2509,-3.2532,-3.2554,-3.2543,-3.2208,-3.2481,-3.2479,-3.2477,-3.2475,-3.2474,-3.2802,-3.2841,-3.281,-3.2827,-3.2812,-3.2806,-3.2837,-3.2796,-3.2813,-3.2816,-3.2768,-3.2801,-3.2779,-3.2772,-3.2761,-3.2787,-3.2738,-3.2768,-3.2775,-3.2784,-3.2799,-3.255,-3.2787,-3.2786,-3.2786,-3.2785,-3.2784,0,-3.3059,-3.3034,-3.305,-3.304,-3.3054,-3.2983,-3.297,-3.2987,-3.3016,-3.3,-3.301,-3.3038,-3.3055,-3.3009,-3.3019,-3.305,-3.3017,-3.3055,-3.3052,-3.3049,-3.2842,-3.2823,-3.3082,-3.3081,-3.3081,-3.3081,-3.3081,-3.3081,-3.3194,-3.3255,-3.3216,-3.327,-3.3245,-3.3275,-3.3274,-3.3268,-3.3255,-3.3288,-3.3301,-3.3271,-3.3243,-3.3251,-3.3264,-3.325,-3.3259,-3.3309,-3.3284,-3.3092,-3.3063,-3.3035,-3.3017,-3.3312,-3.3312,-3.3487,-3.3489,-3.349]},{"header":{"parameterUnit":"m.s-1","parameterCategory":1,"la1":30.2991,"la2":30.254,"lo1":-89.0895,"lo2":-89.0444,"dy":0.0017,"dx":0.0017,"nx":28,"ny":28,"refTime":"2024-08-31T03:00:00:Z","depth":0,"parameterNumber":3,"parameterNumberName":"V-component_of_WINDS"},"data":[0,0,0,0,0,0,0,0,0,0,0,0,0,0,0,0,0,0,0,0,0,0,0,0,0,0,0,0,0,0,0,0,0,0,0,0,0,0,0,0,0,0,0,0,0,0,0,0,0,0,0,0,0,0,0,0,0,0,-0.4734,-0.4734,0,-0.4718,-0.4717,-0.4717,-0.4745,-0.4746,-0.4747,-0.4748,-0.4728,-0.4726,-0.4725,0,0,0,0,0,0,0,0,0,0,0,0,0,-0.4786,-0.4785,-0.4734,-0.4734,-0.4734,-0.4718,-0.4717,-0.4717,-0.4745,-0.4746,-0.4747,-0.4748,-0.4728,-0.4727,-0.4725,0,0,0,0,0,0,0,0,0,0,0,0,0,-0.4766,-0.4785,-0.4734,-0.4746,-0.4747,-0.4718,-0.4717,-0.4717,-0.4745,-0.4746,-0.4748,-0.4749,-0.4729,-0.4727,-0.4725,-0.4683,0,0,-0.4718,-0.4717,0,0,0,0,0,0,0,0,-0.4767,-0.4764,-0.4744,-0.4745,-0.4746,-0.4735,-0.4728,-0.4705,-0.4744,-0.4745,-0.4748,-0.475,-0.4729,-0.4727,-0.472,-0.4682,-0.4681,-0.4718,-0.4717,-0.4716,-0.4715,0,0,0,0,0,0,0,-0.4769,-0.4765,-0.4728,-0.4744,-0.4745,-0.4751,-0.4749,-0.4724,-0.4729,-0.4745,-0.4747,-0.4745,-0.473,-0.4722,-0.472,-0.468,-0.4718,-0.4716,-0.4715,-0.4714,-0.4604,-0.4603,0,0,0,0,0,0,-0.4769,-0.4766,-0.4728,-0.4727,-0.476,-0.4749,-0.4747,-0.4737,-0.473,-0.473,-0.4744,-0.4747,-0.4725,-0.4723,-0.472,-0.4668,-0.4716,-0.4714,-0.4712,-0.4606,-0.4604,-0.4602,0,0,0,0,0,0,-0.477,-0.4765,-0.4729,-0.4747,-0.4743,-0.4746,-0.4735,-0.4736,-0.4729,-0.4729,-0.4729,-0.4736,-0.4726,-0.4723,-0.4691,-0.4668,-0.4713,-0.4711,-0.4608,-0.4605,-0.4603,-0.4567,0,0,0,0,0,0,-0.4771,-0.4766,-0.475,-0.4747,-0.4742,-0.4702,-0.4733,-0.4735,-0.4725,-0.4729,-0.4721,-0.4721,-0.4727,-0.4694,-0.4689,-0.4666,-0.4709,-0.461,-0.4607,-0.4604,-0.457,-0.4563,-0.4558,0,0,0,0,0,-0.4773,-0.474,-0.475,-0.4745,-0.4723,-0.47,-0.4698,-0.4706,-0.4724,-0.4708,-0.4707,-0.4722,-0.4672,-0.4691,-0.4685,-0.4661,-0.4611,-0.4608,-0.4604,-0.4573,-0.4565,-0.4558,0,0,0,0,0,0,-0.4741,-0.474,-0.475,-0.4716,-0.4708,-0.4705,-0.4686,-0.4697,-0.4684,-0.4687,-0.4697,-0.4695,-0.4662,-0.4658,-0.468,-0.4619,-0.4644,-0.4639,-0.4622,-0.4615,-0.4609,-0.4609,-0.4707,0,0,0,0,0,-0.473,-0.4712,-0.4713,-0.4682,-0.4678,-0.4682,-0.4673,-0.468,-0.4672,-0.4668,-0.4666,-0.4657,-0.4639,-0.4627,-0.4611,-0.457,-0.4568,-0.455,-0.4544,-0.4539,-0.4534,-0.4511,-0.4503,-0.459,-0.459,-0.459,0,0,-0.4706,-0.4704,-0.4692,-0.4675,-0.467,-0.4651,-0.4679,-0.4658,-0.4643,-0.4665,-0.4635,-0.4633,-0.4623,-0.4587,-0.4571,-0.4583,-0.451,-0.4535,-0.4531,-0.4528,-0.4507,-0.4498,-0.4491,-0.4588,-0.4588,-0.4589,0,0,-0.4654,-0.4651,-0.4624,-0.4619,-0.4611,-0.4614,-0.4608,-0.4603,-0.4603,-0.4573,-0.4589,-0.4571,-0.4541,-0.4533,-0.4524,-0.4468,-0.448,-0.4462,-0.443,-0.4407,-0.44,-0.4394,-0.4372,-0.4364,-0.4458,-0.4458,-0.4458,0,-0.4625,-0.4598,-0.4609,-0.4586,-0.4577,-0.4597,-0.457,-0.4563,-0.455,-0.4543,-0.4558,-0.4519,-0.4514,-0.4475,-0.4462,-0.4455,-0.4446,-0.4463,-0.44,-0.4394,-0.4389,-0.4368,-0.436,-0.4456,-0.4456,-0.4456,-0.4456,0,-0.4562,-0.4543,-0.4522,-0.451,-0.4499,-0.4474,-0.448,-0.4467,-0.4475,-0.4476,-0.4445,-0.444,-0.4422,-0.4414,-0.4421,-0.4376,-0.4383,-0.4399,-0.4424,-0.4378,-0.4359,-0.4351,-0.4452,-0.4453,-0.4454,-0.4454,0,0,-0.4488,-0.4482,-0.4474,-0.4468,-0.4461,-0.4446,-0.4421,-0.4404,-0.4393,-0.4383,-0.4361,-0.4334,-0.4349,-0.4339,-0.4346,-0.4326,-0.428,-0.4344,-0.4344,-0.4331,-0.4227,-0.4215,-0.4205,-0.4288,-0.4287,-0.4286,-0.4228,0,-0.4435,-0.4393,-0.4402,-0.436,-0.4341,-0.436,-0.4338,-0.433,-0.433,-0.4314,-0.4314,-0.4294,-0.4315,-0.4309,-0.4291,-0.4289,-0.4259,-0.4294,-0.4266,-0.4265,-0.4267,-0.4196,-0.4182,-0.4128,-0.422,-0.4219,-0.4218,0,-0.4367,-0.4355,-0.4312,-0.4306,-0.4299,-0.4279,-0.4264,-0.4248,-0.4239,-0.4241,-0.423,-0.424,-0.4214,-0.4241,-0.4203,-0.4227,-0.4216,-0.4214,-0.4212,-0.4208,-0.4238,-0.4189,-0.4111,-0.4102,-0.4207,-0.4208,-0.4208,0,-0.4315,-0.4289,-0.4259,-0.4253,-0.4247,-0.4232,-0.4228,-0.4221,-0.421,-0.4197,-0.419,-0.4173,-0.4164,-0.415,-0.4155,-0.4174,-0.4116,-0.4143,-0.4115,-0.4115,-0.4101,-0.4101,-0.4018,-0.4096,-0.4096,-0.4097,-0.4097,0,-0.4254,-0.4226,-0.4235,-0.4217,-0.4186,-0.4196,-0.4164,-0.4163,-0.4156,-0.4136,-0.4151,-0.4132,-0.4141,-0.4122,-0.4125,-0.4093,-0.4089,-0.4088,-0.4089,-0.4086,-0.4086,-0.4078,-0.4081,-0.4094,-0.4095,-0.4095,-0.4096,0,-0.4191,-0.4196,-0.4164,-0.4161,-0.4159,-0.4136,-0.4133,-0.4114,-0.4116,-0.4091,-0.4086,-0.4087,-0.4066,-0.407,-0.4046,-0.4048,-0.4007,-0.4014,-0.401,-0.4011,-0.3982,-0.3984,-0.389,-0.3878,-0.3965,-0.3964,-0.3963,0,-0.4151,-0.413,-0.4124,-0.4112,-0.4108,-0.4089,-0.4078,-0.4087,-0.4075,-0.4062,-0.4045,-0.4025,-0.401,-0.3974,-0.3972,-0.3954,-0.3959,-0.3927,-0.3956,-0.3953,-0.3956,-0.3957,-0.3954,-0.3921,-0.392,-0.3919,-0.3919,0,-0.4078,-0.4082,-0.4066,-0.4051,-0.4037,-0.4026,-0.4015,-0.4004,-0.4012,-0.3997,-0.3976,-0.3964,-0.394,-0.3919,-0.3901,-0.3896,-0.3908,-0.391,-0.3902,-0.3898,-0.3896,-0.3895,-0.3993,-0.3911,-0.3912,-0.3913,-0.3913,-0.3913,-0.4024,-0.4006,-0.3999,-0.398,-0.3974,-0.3963,-0.3946,-0.3945,-0.3928,-0.3909,-0.3915,-0.389,-0.3881,-0.3859,-0.3852,-0.3831,-0.3843,-0.3832,-0.3829,-0.3826,-0.3821,-0.39,-0.3828,-0.3828,-0.3829,-0.3829,-0.3829,0,-0.3951,-0.3948,-0.3931,-0.3916,-0.3901,-0.3914,-0.3903,-0.3889,-0.3868,-0.3858,-0.3843,-0.3817,-0.3797,-0.3794,-0.3774,-0.3759,-0.3763,-0.3753,-0.3753,-0.3752,-0.3813,-0.3821,-0.3749,-0.3749,-0.3749,-0.3749,-0.3749,-0.3749,-0.3911,-0.3881,-0.3883,-0.3849,-0.3845,-0.3822,-0.3814,-0.3804,-0.3796,-0.3767,-0.3751,-0.375,-0.3742,-0.3722,-0.3704,-0.3703,-0.3694,-0.3682,-0.3683,-0.374,-0.3748,-0.3755,-0.3763,-0.368,-0.368,-0.3623,-0.3623,-0.3622]}]]